sat.trackr.live / text

‹ back to catalog

KUIPER-00434

NORAD 68938 · 2026-098V

PAYLOAD ACTIVE UNKNOWN

§ Identity

Operator
Country
US
Launch date
2026-04-30
Launch site
FRGUI
Launch vehicle
Mass (kg)
RCS (m²)

External: N2YO · Heavens-Above · Gunter

§ Orbital elements

Epoch: 2026-05-25T01:21:48.263040Z

Period
93.84 min
Inclination
51.8712°
Eccentricity
0.0007986
Mean motion
15.34563480 rev/d
Perigee alt
456.8 km
Apogee alt
467.7 km
Semi-major
6,840.4 km
B*
4.4171e-4
RAAN
179.2276°
Arg perigee
54.7759°
Mean anomaly
305.3973°
Rev number
379

§ Raw data

KUIPER-004341 68938U 26098V   26145.05680860  .00014677  00000+0  44171-3 0  99942 68938  51.8712 179.2276 0007986  54.7759 305.3973 15.34563480  3799

JSON: /api/v1/satellites/68938 · /tle

For live sub-satellite position, see the globe view (requires WebGL).

§ Visibility from observer

Set your observer location to see the next 7 days of passes ≥ 10°. The values pass through the URL so the page stays shareable.

No JS? Fill the form by hand. The geolocation button needs JavaScript.